Location: Bannatyne
(13.0833°N, 59.5333°W)
Time: 18:42:55
(UTC+00:00)

Courier 1B - Visible Passes

Search period start: 27 January 2020 00:00
Search period end: 06 February 2020 00:00
Orbit: 962 x 1209 km, 28.3° (Epoch: 27 January)

Date Brightness Start Highest point End Pass type
(mag) Time Alt. Az. Time Alt. Az. Time Alt. Az.
27 Jan 10.2 07:11:22 11° NE 07:11:22 11° NE 07:11:49 10° NE visible
27 Jan 9.1 08:58:15 20° NNW 09:01:36 27° N 09:07:58 10° ENE visible
28 Jan 9.2 08:07:51 24° NNE 08:07:51 24° NNE 08:13:19 10° ENE visible
28 Jan 8.8 09:55:41 10° NW 10:02:45 41° NNE 10:10:03 10° E visible
29 Jan 10.0 07:17:28 14° NE 07:17:28 14° NE 07:18:44 10° NE visible
29 Jan 8.9 09:04:22 20° NNW 09:08:34 34° NNE 09:15:27 10° ENE visible
30 Jan 9.5 00:30:01 10° SSW 00:31:51 17° S 00:31:51 17° S visible
30 Jan 9.0 08:13:59 29° N 08:14:21 29° NNE 08:20:46 10° ENE visible
30 Jan 8.3 10:01:59 10° NW 10:09:24 60° NNE 10:17:08 10° ESE visible
30 Jan 9.2 23:37:24 10° S 23:41:22 17° SSE 23:41:34 17° SSE visible
31 Jan 9.8 07:23:38 18° NE 07:23:38 18° NE 07:26:05 10° ENE visible
31 Jan 8.5 09:10:32 21° NW 09:15:20 47° NNE 09:22:45 10° E visible
31 Jan 9.5 22:45:49 10° SSE 22:47:33 11° SSE 22:49:15 10° SE visible
01 Feb 9.1 00:35:24 10° SW 00:38:13 25° SSW 00:38:13 25° SSW visible
01 Feb 8.6 08:20:12 36° N 08:21:15 38° NNE 08:28:13 10° E visible
01 Feb 8.4 23:42:08 10° SSW 23:47:52 32° SSE 23:48:00 32° SSE visible
02 Feb 9.4 07:29:54 24° NE 07:29:54 24° NE 07:33:35 10° ENE visible
02 Feb 8.0 09:16:48 22° NW 09:21:55 73° NNE 09:29:39 10° ESE visible
02 Feb 8.9 22:49:05 10° SSW 22:54:07 23° SSE 22:57:48 14° ESE visible
03 Feb 9.0 00:41:31 10° WSW 00:44:43 31° WSW 00:44:43 31° WSW visible
03 Feb 8.0 08:26:32 49° NNW 08:27:56 56° NNE 08:35:22 10° E visible
03 Feb 7.5 23:47:51 10° SW 23:54:20 61° SSE 23:54:32 61° SE visible
04 Feb 9.0 07:36:17 34° ENE 07:36:17 34° ENE 07:40:56 10° E visible
04 Feb 7.9 09:23:11 21° WNW 09:28:22 70° SSW 09:36:02 10° SE visible
04 Feb 8.1 22:54:19 10° SW 23:00:37 43° SSE 23:04:21 22° E visible
05 Feb 9.1 00:48:13 10° WSW 00:51:16 28° W 00:51:16 28° W visible
05 Feb 10.3 06:46:04 11° E 06:46:04 11° E 06:46:24 10° E visible
05 Feb 7.6 08:32:58 61° WNW 08:34:27 89° NNE 08:42:03 10° ESE visible
